Regional Weather Roundup
Issued by NWS State College, PA

Home | Current Version | Previous Version | Graphics & Text | Print | Product List | Glossary Off
Versions: 1 2 3 4 5 6 7 8 9 10 11 12 13 14 15 16 17 18 19 20 21 22 23 24 25 26 27 28 29 30 31 32 33 34 35 36 37 38 39 40 41 42 43 44 45 46 47 48 49 50

000
ASUS41 KCTP 080410
RWRCTP

REGIONAL WEATHER ROUNDUP
NATIONAL WEATHER SERVICE STATE COLLEGE PA
1100 PM EST SUN FEB 07 2016

Note: "fair" indicates few or no clouds below 12,000 feet with no
significant weather and/or obstructions to visibility.

* = STATION THAT DOES NOT REPORT PRECIPITATION /E.G. RAIN...SNOW...ETC/
    THUNDER OR FOG.

PAZ002>004-007>009-013>016-020>023-029>032-080500-
WESTERN PENNSYLVANIA

CITY           SKY/WX    TMP DP  RH WIND       PRES   REMARKS
ERIE           CLOUDY    43  23  45 S13       29.81F
MEADVILLE      CLOUDY    39  22  50 VRB5      29.81F
FRANKLIN*      CLOUDY    37  21  52 SE7       29.84F
NEW CASTLE     FAIR      39  23  52 SE3       29.83F
BEAVER COUNTY  NOT AVBL
BUTLER*        PTCLDY    37  21  52 S5        29.87F
PITTSBURGH INT PTCLDY    37  21  52 S5        29.84F
PITTSBURGH     MOCLDY    41  23  48 S7        29.83F
INDIANA*       CLOUDY    32  27  80 CALM      29.88F
LATROBE        MOCLDY    32  27  80 CALM      29.86F
WASHINGTON CO* CLEAR     28  21  74 CALM      29.84F
$$

PAZ004>006-010>012-017>019-024>028-033>037-041-042-045-046-049>053-080500-
CENTRAL PENNSYLVANIA

CITY           SKY/WX    TMP DP  RH WIND       PRES   REMARKS
BRADFORD       CLOUDY    30  22  72 CALM      29.83F
DUBOIS         CLOUDY    34  23  64 SE5       29.83F
CLEARFIELD     CLEAR     29  22  75 N7        29.86F
JOHNSTOWN      PTCLDY    34  19  54 CALM      29.83F
ALTOONA        CLOUDY    30  21  69 CALM      29.86F
STATE COLLEGE  CLEAR     31  23  72 CALM      29.88F
WILLIAMSPORT   CLOUDY    29  22  75 CALM      29.91F
SELINSGROVE    CLOUDY    27  24  89 NW3       29.92F
FT INDIANTOWN  CLOUDY    29  26  86 CALM      29.90F
CAPITAL CITY   CLOUDY    31  22  69 CALM      29.90F
HARRISBURG     CLOUDY    32  26  78 NW3       29.90F
YORK           CLOUDY    26  23  88 W3        29.89F
$$

PAZ038>040-043-044-047-048-054-055-060>062-067>071-080500-
EASTERN PENNSYLVANIA

CITY           SKY/WX    TMP DP  RH WIND       PRES   REMARKS
SCRANTON       CLOUDY    35  20  54 E3        29.91F
MOUNT POCONO   CLOUDY    30  17  58 NE6       29.87F
ALLENTOWN      CLOUDY    32  22  66 N3        29.91F
QUAKERTOWN*    CLOUDY    32  23  69 NE5       29.90F
READING        CLOUDY    35  21  56 N5        29.89F
LANCASTER      CLOUDY    34  23  64 CALM      29.89F
COATESVILLE    PTCLDY    36  21  55 N6        29.88F
POTTSTOWN      CLOUDY    34  20  56 N5        29.90F
BLUE BELL        N/A     34  25  69 CALM      29.88F
DOYLESTOWN     CLOUDY    34  22  61 NE6       29.88F
WILLOW GROVE   NOT AVBL
NORTH PHILA    MOCLDY    39  26  59 N12       29.89F
PHILADELPHIA   CLOUDY    41  25  53 NE17      29.88F
$$



USA.gov is the U.S. government's official web portal to all federal, state and local government web resources and services.